Location: Pasadena, ca
(34.1243°N, 118.1037°W)
Time: 05:56:41
(UTC-07:00)

Tiangong 1 - Pass Details

Date: 13 October 2017
Orbit: 294 x 320 km, 42.8° (Epoch: 18 October)

Event Time Altitude Azimuth Distance (km) Brightness Sun altitude
Rises 19:56:23 0° 304° (WNW) 2,035 5.8 -20.7°
Reaches altitude 10° 19:58:28 10° 314° (NW) 1,199 4.2 -21.1°
Enters shadow 19:59:34 20° 328° (NNW) 805 3.1 -21.3°
